Location: Puketoi
(40.5833°S, 176.0167°E)
Time: 12:04:09
(UTC+00:00)

SL-16 R/B - Pass Details

Date: 08 February 2023
Orbit: 985 x 1006 km, 99.6° (Epoch: 30 March)

Event Time Altitude Azimuth Distance (km) Brightness Sun altitude
Rises 16:00:21 0° 171° (S) 3,746 6.3 -16.2°
Reaches altitude 10° 16:02:55 10° 176° (S) 2,787 5.5 -15.8°
Maximum altitude 16:08:55 50° 249° (WSW) 1,251 2.9 -14.9°
Enters shadow 16:13:11 19° 316° (NW) 2,168 3.7 -14.2°
